Tracking 20945 objects as of 8-Jul-2020
HD Live streaming from Space Station
objects crossing your sky now

SL-16 R/B

Track SL-16 R/B now!
10-day predictions
SL-16 R/B is classified as:


NORAD ID: 25861
Int'l Code: 1999-039B
Perigee: 629.0 km
Apogee: 652.9 km
Inclination: 98.2 °
Period: 97.4 minutes
Semi major axis: 7011 km
RCS: 13.5291 m2 (large)
Launch date: July 17, 1999
Source: Commonwealth of Independent States (former USSR) (CIS)
Launch site: TYURATAM MISSILE AND SPACE COMPLEX (TTMTR)

Note: This is a ROCKET BODY
aabbcc
Your satellite tracking list
Your tracking list is empty




NASA's NSSDC Master Catalog

Two Line Element Set (TLE):
1 25861U 99039B   20190.59100747 -.00000008 +00000-0 +64625-5 0  9994
2 25861 098.2071 193.1638 0017031 090.0449 021.0151 14.78582645130745
Source of the keplerian elements: AFSPC